N6TQ SUAA-SUPE

Flight info

Callsign N6TQ
Flight time 1h 3m
Altitude 3500
Route LINEA COSTA
Aircraft PA36/L-V/N

Departure

Time 2026-04-27 11:31
Airport Ángel S. Adami International Airport (SUAA)

Arrival

Time 2026-04-27 12:34
Airport El Jagüel / Punta del Este Airport (SUPE)
Time Latitude Longitude Altitude Speed Heading
2026-04-27 11:29 -34.78343 -56.26480 178 ft 0 kts 269°
2026-04-27 11:29 -34.78343 -56.26493 177 ft 7 kts 269°
2026-04-27 11:30 -34.78390 -56.26532 177 ft 17 kts 176°
2026-04-27 11:30 -34.78756 -56.26505 195 ft 84 kts 179°
2026-04-27 11:30 -34.79396 -56.26478 423 ft 97 kts 181°
2026-04-27 11:30 -34.80106 -56.26504 608 ft 109 kts 185°
2026-04-27 11:31 -34.80858 -56.26714 813 ft 109 kts 222°
2026-04-27 11:31 -34.81065 -56.27551 1024 ft 112 kts 280°
2026-04-27 11:31 -34.80746 -56.28483 1098 ft 128 kts 300°
2026-04-27 11:31 -34.80220 -56.29506 1037 ft 156 kts 302°
2026-04-27 11:32 -34.79710 -56.30795 909 ft 171 kts 302°
2026-04-27 11:32 -34.79046 -56.31969 1102 ft 165 kts 308°
2026-04-27 11:32 -34.78463 -56.32735 1408 ft 153 kts 317°
2026-04-27 11:32 -34.78274 -56.32950 1362 ft 160 kts 316°
2026-04-27 11:33 -34.78065 -56.33197 1335 ft 163 kts 314°
2026-04-27 11:33 -34.77963 -56.33326 1357 ft 163 kts 314°
2026-04-27 11:33 -34.77307 -56.34445 1494 ft 161 kts 292°
2026-04-27 11:33 -34.77174 -56.35747 1735 ft 160 kts 267°
2026-04-27 11:34 -34.77395 -56.37090 1861 ft 161 kts 252°
2026-04-27 11:34 -34.77810 -56.38292 2271 ft 146 kts 243°
2026-04-27 11:34 -34.78315 -56.39193 2360 ft 156 kts 232°
2026-04-27 11:36 -34.78868 -56.39993 2210 ft 169 kts 230°
2026-04-27 11:36 -34.79733 -56.41054 2129 ft 172 kts 226°
2026-04-27 11:36 -34.80598 -56.41957 2464 ft 158 kts 212°
2026-04-27 11:37 -34.81583 -56.41990 2867 ft 149 kts 158°
2026-04-27 11:37 -34.82475 -56.41236 2929 ft 158 kts 138°
2026-04-27 11:37 -34.83133 -56.40205 3235 ft 153 kts 118°
2026-04-27 11:37 -34.83463 -56.38987 3484 ft 153 kts 101°
2026-04-27 11:38 -34.83570 -56.37665 3515 ft 163 kts 95°
2026-04-27 11:38 -34.83613 -56.36320 3811 ft 154 kts 91°
2026-04-27 11:38 -34.83630 -56.35033 4108 ft 147 kts 91°
2026-04-27 11:38 -34.83489 -56.33821 4394 ft 146 kts 74°
2026-04-27 11:39 -34.83123 -56.32589 4394 ft 161 kts 70°
2026-04-27 11:39 -34.82717 -56.31332 4580 ft 159 kts 68°
2026-04-27 11:39 -34.82367 -56.30550 4690 ft 159 kts 58°
2026-04-27 11:39 -34.81559 -56.29003 4810 ft 163 kts 61°
2026-04-27 11:40 -34.81062 -56.27717 4799 ft 171 kts 67°
2026-04-27 11:40 -34.80738 -56.26812 4717 ft 178 kts 67°
2026-04-27 11:40 -34.79951 -56.25650 4567 ft 184 kts 30°
2026-04-27 11:40 -34.78702 -56.25404 4416 ft 187 kts 348°
2026-04-27 11:41 -34.77490 -56.26031 4194 ft 192 kts 330°
2026-04-27 11:41 -34.76538 -56.27165 3927 ft 196 kts 302°
2026-04-27 11:41 -34.76029 -56.28697 3663 ft 198 kts 280°
2026-04-27 11:41 -34.76039 -56.30355 3538 ft 193 kts 266°
2026-04-27 11:42 -34.76087 -56.30993 3537 ft 189 kts 265°
2026-04-27 11:43 -34.76136 -56.31561 3546 ft 186 kts 264°
2026-04-27 11:43 -34.76317 -56.33109 3533 ft 182 kts 263°
2026-04-27 11:44 -34.76559 -56.34613 3524 ft 181 kts 256°
2026-04-27 11:44 -34.76908 -56.36079 3525 ft 179 kts 252°
2026-04-27 11:44 -34.77467 -56.37431 3524 ft 179 kts 238°
2026-04-27 11:44 -34.78242 -56.38609 3524 ft 179 kts 226°
2026-04-27 11:45 -34.79147 -56.39644 3522 ft 179 kts 220°
2026-04-27 11:45 -34.80242 -56.40285 3524 ft 179 kts 195°
2026-04-27 11:45 -34.81470 -56.40532 3526 ft 179 kts 186°
2026-04-27 11:45 -34.82722 -56.40564 3526 ft 180 kts 179°
2026-04-27 11:46 -34.83968 -56.40372 3527 ft 180 kts 172°
2026-04-27 11:46 -34.85178 -56.39973 3523 ft 181 kts 158°
2026-04-27 11:46 -34.86280 -56.39240 3524 ft 181 kts 146°
2026-04-27 11:46 -34.87219 -56.38224 3526 ft 181 kts 134°
2026-04-27 11:47 -34.88037 -56.37056 3525 ft 181 kts 130°
2026-04-27 11:47 -34.88829 -56.35866 3526 ft 181 kts 130°
2026-04-27 11:47 -34.89596 -56.34644 3524 ft 181 kts 126°
2026-04-27 11:47 -34.90271 -56.33373 3525 ft 181 kts 123°
2026-04-27 11:48 -34.90939 -56.32072 3525 ft 181 kts 123°
2026-04-27 11:48 -34.91436 -56.30809 3525 ft 176 kts 112°
2026-04-27 11:50 -34.91685 -56.30005 3524 ft 172 kts 110°
2026-04-27 11:50 -34.92095 -56.28655 3525 ft 168 kts 110°
2026-04-27 11:50 -34.92496 -56.27330 3524 ft 166 kts 110°
2026-04-27 11:51 -34.92893 -56.26017 3524 ft 164 kts 110°
2026-04-27 11:51 -34.93286 -56.24715 3525 ft 163 kts 110°
2026-04-27 11:51 -34.94070 -56.22122 3525 ft 163 kts 110°
2026-04-27 11:52 -34.94267 -56.21467 3525 ft 162 kts 110°
2026-04-27 11:53 -34.94612 -56.20215 3526 ft 162 kts 105°
2026-04-27 11:53 -34.94828 -56.18866 3525 ft 162 kts 96°
2026-04-27 11:53 -34.94875 -56.17492 3525 ft 162 kts 91°
2026-04-27 11:53 -34.94904 -56.16115 3525 ft 162 kts 91°
2026-04-27 11:54 -34.94931 -56.14738 3525 ft 162 kts 90°
2026-04-27 11:54 -34.94793 -56.13375 3526 ft 162 kts 78°
2026-04-27 11:54 -34.94466 -56.12081 3526 ft 162 kts 69°
2026-04-27 11:54 -34.94045 -56.10805 3526 ft 162 kts 67°
2026-04-27 11:55 -34.93551 -56.09569 3526 ft 162 kts 61°
2026-04-27 11:55 -34.93003 -56.08369 3526 ft 162 kts 60°
2026-04-27 11:55 -34.92452 -56.07172 3526 ft 162 kts 60°
2026-04-27 11:55 -34.91901 -56.05975 3526 ft 162 kts 60°
2026-04-27 11:56 -34.91348 -56.04779 3526 ft 162 kts 60°
2026-04-27 11:56 -34.90795 -56.03583 3526 ft 162 kts 60°
2026-04-27 11:56 -34.90242 -56.02386 3526 ft 162 kts 60°
2026-04-27 11:56 -34.89689 -56.01192 3526 ft 162 kts 60°
2026-04-27 11:57 -34.89134 -55.99994 3527 ft 162 kts 60°
2026-04-27 11:57 -34.88571 -55.98807 3527 ft 162 kts 59°
2026-04-27 11:57 -34.87998 -55.97623 3526 ft 162 kts 59°
2026-04-27 11:57 -34.87428 -55.96442 3527 ft 162 kts 59°
2026-04-27 11:58 -34.86856 -55.95257 3527 ft 162 kts 59°
2026-04-27 11:58 -34.86285 -55.94075 3527 ft 162 kts 59°
2026-04-27 11:58 -34.85713 -55.92891 3527 ft 162 kts 59°
2026-04-27 11:58 -34.85147 -55.91723 3527 ft 162 kts 59°
2026-04-27 11:59 -34.84575 -55.90541 3527 ft 162 kts 59°
2026-04-27 11:59 -34.84002 -55.89357 3527 ft 162 kts 59°
2026-04-27 11:59 -34.83430 -55.88177 3527 ft 162 kts 59°
2026-04-27 11:59 -34.82857 -55.86994 3526 ft 162 kts 59°
2026-04-27 12:00 -34.82284 -55.85811 3527 ft 162 kts 59°
2026-04-27 12:00 -34.81726 -55.84620 3527 ft 162 kts 63°
2026-04-27 12:00 -34.81305 -55.83349 3526 ft 162 kts 72°
2026-04-27 12:00 -34.80990 -55.82031 3527 ft 162 kts 75°
2026-04-27 12:01 -34.80737 -55.80694 3527 ft 162 kts 78°
2026-04-27 12:01 -34.80504 -55.79349 3527 ft 162 kts 78°
2026-04-27 12:01 -34.80502 -55.79336 3527 ft 162 kts 78°
2026-04-27 12:01 -34.80317 -55.78248 3526 ft 162 kts 78°
2026-04-27 12:02 -34.80307 -55.78189 3527 ft 162 kts 78°
2026-04-27 12:02 -34.80244 -55.77816 3525 ft 162 kts 78°
2026-04-27 12:03 -34.80085 -55.76461 3525 ft 162 kts 86°
2026-04-27 12:03 -34.80104 -55.75086 3525 ft 162 kts 93°
2026-04-27 12:03 -34.80161 -55.73711 3525 ft 162 kts 93°
2026-04-27 12:03 -34.80219 -55.72342 3525 ft 162 kts 93°
2026-04-27 12:04 -34.80277 -55.70968 3525 ft 162 kts 93°
2026-04-27 12:04 -34.80334 -55.69598 3525 ft 162 kts 93°
2026-04-27 12:04 -34.80391 -55.68242 3525 ft 162 kts 93°
2026-04-27 12:04 -34.80449 -55.66870 3525 ft 162 kts 93°
2026-04-27 12:05 -34.80505 -55.65499 3525 ft 162 kts 93°
2026-04-27 12:05 -34.80562 -55.64128 3526 ft 162 kts 93°
2026-04-27 12:05 -34.80619 -55.62755 3526 ft 162 kts 93°
2026-04-27 12:05 -34.80676 -55.61385 3526 ft 162 kts 93°
2026-04-27 12:06 -34.80732 -55.60012 3526 ft 162 kts 93°
2026-04-27 12:06 -34.80788 -55.58640 3526 ft 162 kts 93°
2026-04-27 12:06 -34.80844 -55.57268 3526 ft 162 kts 93°
2026-04-27 12:06 -34.80899 -55.55896 3526 ft 162 kts 93°
2026-04-27 12:07 -34.80955 -55.54525 3525 ft 162 kts 93°
2026-04-27 12:07 -34.81010 -55.53153 3526 ft 162 kts 93°
2026-04-27 12:07 -34.81065 -55.51799 3526 ft 162 kts 93°
2026-04-27 12:07 -34.81120 -55.50427 3526 ft 162 kts 93°
2026-04-27 12:08 -34.81175 -55.49057 3526 ft 162 kts 92°
2026-04-27 12:08 -34.81230 -55.47685 3526 ft 162 kts 93°
2026-04-27 12:08 -34.81284 -55.46315 3526 ft 162 kts 93°
2026-04-27 12:08 -34.81338 -55.44941 3526 ft 162 kts 93°
2026-04-27 12:09 -34.81392 -55.43569 3526 ft 162 kts 92°
2026-04-27 12:09 -34.81467 -55.42200 3526 ft 162 kts 97°
2026-04-27 12:09 -34.81741 -55.40873 3526 ft 162 kts 111°
2026-04-27 12:09 -34.82282 -55.39678 3525 ft 162 kts 124°
2026-04-27 12:10 -34.82915 -55.38545 3526 ft 162 kts 124°
2026-04-27 12:10 -34.83551 -55.37411 3526 ft 162 kts 124°
2026-04-27 12:10 -34.84186 -55.36280 3527 ft 162 kts 124°
2026-04-27 12:10 -34.84873 -55.35196 3526 ft 162 kts 133°
2026-04-27 12:11 -34.85682 -55.34248 3526 ft 162 kts 139°
2026-04-27 12:11 -34.85788 -55.34131 3526 ft 162 kts 139°
2026-04-27 12:12 -34.86224 -55.33657 3526 ft 162 kts 139°
2026-04-27 12:12 -34.87064 -55.32746 3526 ft 162 kts 139°
2026-04-27 12:13 -34.87904 -55.31834 3527 ft 162 kts 139°
2026-04-27 12:13 -34.88744 -55.30920 3526 ft 162 kts 139°
2026-04-27 12:13 -34.89578 -55.30011 3527 ft 162 kts 139°
2026-04-27 12:13 -34.90357 -55.29020 3525 ft 162 kts 125°
2026-04-27 12:14 -34.90905 -55.27827 3526 ft 162 kts 112°
2026-04-27 12:14 -34.91283 -55.26553 3526 ft 162 kts 108°
2026-04-27 12:14 -34.91522 -55.25213 3525 ft 162 kts 99°
2026-04-27 12:14 -34.91710 -55.23861 3526 ft 162 kts 99°
2026-04-27 12:15 -34.91817 -55.22492 3526 ft 162 kts 92°
2026-04-27 12:15 -34.91822 -55.21117 3526 ft 162 kts 90°
2026-04-27 12:15 -34.91816 -55.19741 3526 ft 162 kts 89°
2026-04-27 12:15 -34.91810 -55.18365 3527 ft 162 kts 90°
2026-04-27 12:16 -34.91803 -55.16991 3527 ft 162 kts 90°
2026-04-27 12:16 -34.91796 -55.15634 3527 ft 162 kts 89°
2026-04-27 12:16 -34.91793 -55.15030 3527 ft 162 kts 89°
2026-04-27 12:18 -34.91789 -55.13740 3527 ft 162 kts 90°
2026-04-27 12:18 -34.91900 -55.12378 3524 ft 162 kts 106°
2026-04-27 12:19 -34.92323 -55.11127 3527 ft 162 kts 114°
2026-04-27 12:19 -34.92785 -55.09876 3528 ft 162 kts 114°
2026-04-27 12:19 -34.93246 -55.08633 3528 ft 162 kts 114°
2026-04-27 12:19 -34.93415 -55.08175 3528 ft 162 kts 114°
2026-04-27 12:21 -34.93769 -55.07225 3528 ft 162 kts 115°
2026-04-27 12:21 -34.94234 -55.05975 3528 ft 162 kts 115°
2026-04-27 12:21 -34.94699 -55.04722 3528 ft 162 kts 114°
2026-04-27 12:21 -34.95174 -55.03442 3367 ft 171 kts 115°
2026-04-27 12:22 -34.95678 -55.02088 3127 ft 179 kts 115°
2026-04-27 12:22 -34.96197 -55.00686 2886 ft 183 kts 114°
2026-04-27 12:22 -34.96724 -54.99259 2643 ft 186 kts 114°
2026-04-27 12:22 -34.97092 -54.98264 2539 ft 183 kts 114°
2026-04-27 12:23 -34.97358 -54.97522 2534 ft 178 kts 111°
2026-04-27 12:23 -34.97634 -54.96085 2534 ft 172 kts 96°
2026-04-27 12:24 -34.97659 -54.94655 2524 ft 163 kts 81°
2026-04-27 12:24 -34.97422 -54.93416 2523 ft 138 kts 76°
2026-04-27 12:24 -34.97200 -54.92347 2523 ft 123 kts 75°
2026-04-27 12:24 -34.97033 -54.91552 2520 ft 114 kts 75°
2026-04-27 12:25 -34.96999 -54.91391 2524 ft 112 kts 75°
2026-04-27 12:26 -34.96783 -54.90518 2525 ft 104 kts 66°
2026-04-27 12:26 -34.96494 -54.89740 2517 ft 100 kts 60°
2026-04-27 12:26 -34.96083 -54.89069 2405 ft 101 kts 45°
2026-04-27 12:26 -34.95726 -54.88684 2312 ft 104 kts 36°
2026-04-27 12:27 -34.95453 -54.87975 2347 ft 90 kts 104°
2026-04-27 12:27 -34.95891 -54.87491 2363 ft 91 kts 171°
2026-04-27 12:27 -34.96501 -54.87694 2410 ft 95 kts 220°
2026-04-27 12:27 -34.96924 -54.88353 2352 ft 106 kts 240°
2026-04-27 12:28 -34.97231 -54.89191 2261 ft 108 kts 254°
2026-04-27 12:28 -34.97292 -54.90091 2184 ft 106 kts 276°
2026-04-27 12:28 -34.97087 -54.90919 1958 ft 99 kts 298°
2026-04-27 12:28 -34.96699 -54.91542 1753 ft 87 kts 316°
2026-04-27 12:29 -34.96232 -54.91944 1565 ft 82 kts 328°
2026-04-27 12:29 -34.95719 -54.92238 1420 ft 81 kts 341°
2026-04-27 12:29 -34.95195 -54.92378 1315 ft 75 kts 351°
2026-04-27 12:29 -34.94692 -54.92403 1232 ft 68 kts
2026-04-27 12:30 -34.94200 -54.92345 1157 ft 75 kts
2026-04-27 12:30 -34.93984 -54.92321 1103 ft 82 kts
2026-04-27 12:33 -34.93744 -54.92310 974 ft 85 kts
2026-04-27 12:33 -34.93210 -54.92276 748 ft 74 kts
2026-04-27 12:33 -34.92704 -54.92239 568 ft 72 kts
2026-04-27 12:33 -34.92212 -54.92200 385 ft 69 kts
2026-04-27 12:34 -34.91740 -54.92109 214 ft 68 kts
2026-04-27 12:34 -34.91299 -54.92051 62 ft 55 kts 358°
2026-04-27 12:34 -34.91074 -54.92031 48 ft 17 kts 77°
2026-04-27 12:34 -34.91152 -54.92032 50 ft 21 kts 185°
2026-04-27 12:35 -34.91263 -54.92043 51 ft 12 kts 185°
2026-04-27 12:35 -34.91338 -54.92048 50 ft 9 kts 156°
2026-04-27 12:35 -34.91358 -54.91984 53 ft 8 kts 97°
2026-04-27 12:35 -34.91363 -54.91906 53 ft 10 kts 96°
2026-04-27 12:36 -34.91411 -54.91879 54 ft 7 kts 185°
2026-04-27 12:36 -34.91449 -54.91876 55 ft 5 kts 134°
2026-04-27 12:36 -34.91457 -54.91864 55 ft 0 kts 113°